Tracking 25620 objects as of 18-May-2022
HD Live streaming from Space Station
objects crossing your sky now

COSMOS 2251 DEB

Track COSMOS 2251 DEB now!
10-day predictions


NORAD ID: 46430
Int'l Code: 1993-036BWS
Perigee: 703.3 km
Apogee: 903.0 km
Inclination: 73.9 °
Period: 100.8 minutes
Semi major axis: 7174 km
RCS: Unknown
Launch date: June 16, 1993
Source: Commonwealth of Independent States (former USSR) (CIS)
Launch site: PLESETSK MISSILE AND SPACE COMPLEX (PKMTR)

Note: This is SATELLITE DEBRIS
aabbcc
Your satellite tracking list
Your tracking list is empty




NASA's NSSDC Master Catalog

Two Line Element Set (TLE):
1 46430U 93036BWU 22136.66645732  .00004452  00000-0  16027-2 0  9994
2 46430  73.9226 259.0132 0139149  97.7903 263.9069 14.28727778609128
Source of the keplerian elements: AFSPC